Flag for U.S.A. Weather past 2 weeks in Terre Haute, Indiana, U.S.A.

Now
80 °F

Sunny.


Feels Like: 80 °F
Forecast: 56 / 82 °F
Wind: 10 mph from Southeast

Location: Terre Haute International Airport - Hulman Field

Current Time: Aug 28, 2015 at 7:01:30 PM

Latest Report: Aug 28, 2015 at 5:53 PM


Visibility: 10 mi

Pressure: 30.07 "Hg

Humidity: 45%

Dew point: 57 °F

Location of Terre HauteLocation

Historic Weather in Terre Haute — Graph

°F

Terre Haute temperature yesterday

Maximum temperature yesterday: 82 °F (at 3:53 PM)
Minimum temperature yesterday: 52 °F (at 6:53 AM)
Average temperature yesterday: 66 °F

Past Weeks' High & Low Weather Summary

 TemperatureHumidityPressure
High89 °F (Aug 17, 3:53 PM)97% (Aug 14, 2:53 AM)30.19 "Hg (Aug 14, 2:53 AM)
Low48 °F (Aug 25, 6:53 AM)36% (Aug 20, 3:53 PM)29.73 "Hg (Aug 19, 7:53 AM)
Average70 °F72%30.04 "Hg
* Reported Aug 13 5:53 PM — Aug 28 5:53 PM, Terre Haute, Weather by CustomWeather, © 2015

Note: Actual official high and low records may vary slightly from our data, if they occured in-between our weather recording intervals... More about our weather records

Advertising

Terre Haute weather history for previous 24 hours

 ConditionsComfort  
Time TempWeatherWind HumidityBarometerVisibility
5:53 PM
Fri, Aug 28
80 °FSunny.10 mph45%30.07 "Hg10 mi
4:53 PM80 °FSunny.7 mph44%30.08 "Hg10 mi
3:53 PM81 °FPassing clouds.9 mph42%30.11 "Hg10 mi
2:53 PM80 °FSunny.14 mph44%30.12 "Hg10 mi
1:53 PM78 °FSunny.9 mph46%30.14 "Hg10 mi
12:53 PM77 °FSunny.7 mph48%30.16 "Hg10 mi
11:53 AM74 °FSunny.5 mph57%30.17 "Hg10 mi
10:53 AM72 °FSunny.3 mph61%30.16 "Hg10 mi
9:53 AM68 °FSunny.3 mph73%30.16 "Hg10 mi
8:53 AM62 °FSunny.5 mph86%30.16 "Hg10 mi
7:53 AM54 °FFog.No wind97%30.16 "Hg1 mi
6:53 AM56 °FClear.No wind97%30.14 "Hg10 mi
5:53 AM59 °FOvercast.No wind93%30.13 "Hg10 mi
4:53 AM61 °FOvercast.3 mph90%30.12 "Hg10 mi
3:53 AM59 °FOvercast.No wind93%30.12 "Hg10 mi
2:53 AM61 °FPassing clouds.3 mph90%30.11 "Hg10 mi
1:53 AM58 °FPassing clouds.No wind93%30.11 "Hg10 mi
12:53 AM59 °FClear.No wind90%30.11 "Hg10 mi
11:53 PM
Thu, Aug 27
60 °FClear.No wind93%30.10 "Hg10 mi
10:53 PM63 °FClear.No wind87%30.10 "Hg10 mi
9:53 PM65 °FPassing clouds.No wind85%30.10 "Hg10 mi
8:53 PM69 °FSunny.No wind73%30.09 "Hg10 mi
7:53 PM76 °FPartly sunny.3 mph64%30.09 "Hg10 mi
Weather by CustomWeather, © 2015

See weather overviewHow to use our weather pages